Weather History for Escanaba, MI

Change the Weather History Date:

Wednesday, May 15, 2013

  Actual Average Record
Temperature  
Mean Temperature 58 °F -  
Max Temperature 78 °F 59 °F 82 °F (2012)
Min Temperature 39 °F 42 °F 28 °F (2002)
Degree Days  
Heating Degree Days 6    
Growing Degree Days 8 (Base 50)    
Moisture  
Dew Point 37 °F    
Average Humidity 46    
Maximum Humidity 87    
Minimum Humidity 16    
Precipitation  
Precipitation 0.00 in - - ()
Sea Level Pressure  
Sea Level Pressure 29.65 in    
Wind  
Wind Speed 9 mph (WNW)    
Max Wind Speed 22 mph    
Max Gust Speed 32 mph    
Visibility 10 miles    
Events      
Averages and records for this station are not official NWS values.
T = Trace of Precipitation, MM = Missing Value Source: NWS Daily Summary

Daily Weather History Graph

Daily Weather History Graph

Search for Another Location

Airport:

Trip Planner

Search our weather history database for the weather conditions in past years. The results will help you decide how hot, cold, wet, or windy it might be!

Date:

Astronomy

May. 15, 2013 Rise Set
Actual Time 6:16 AM EDT 9:13 PM EDT
Civil Twilight 5:41 AM EDT 9:48 PM EDT
Nautical Twilight 4:57 AM EDT 10:33 PM EDT
Astronomical Twilight 4:04 AM EDT 11:26 PM EDT
Moon 10:54 AM EDT (5/15) 12:57 AM EDT (5/15)
Length of Visible Light 16h 06m
Length of Day
14h 56m
Waxing Crescent, 26% of the Moon is Illuminated
May 15
Waxing Crescent
May 18
First Quarter
May 25
Full
May 31
Last Quarter
Jun 8
New

Hourly Weather History & Observations

Time (EDT) Temp. Windchill Dew Point Humidity Pressure Visibility Wind Dir Wind Speed Gust Speed Precip Events Conditions
12:15 AM 44.6 °F 41.4 °F 39.2 °F 81% 29.53 in 9.0 mi East 5.8 mph - N/A   Clear
12:35 AM 44.6 °F 40.2 °F 39.2 °F 81% 29.51 in 10.0 mi ESE 8.1 mph - N/A   Clear
12:55 AM 44.6 °F 40.2 °F 39.2 °F 81% 29.50 in 10.0 mi East 8.1 mph - N/A   Clear
1:15 AM 46.4 °F 42.4 °F 39.2 °F 76% 29.48 in 10.0 mi ESE 8.1 mph - N/A   Clear
1:35 AM 46.4 °F 44.3 °F 39.2 °F 76% 29.47 in 10.0 mi SE 4.6 mph - N/A   Partly Cloudy
1:55 AM 46.4 °F 42.9 °F 39.2 °F 76% 29.49 in 10.0 mi NW 6.9 mph - N/A   Clear
2:15 AM 44.6 °F 40.7 °F 39.2 °F 81% 29.52 in 10.0 mi NNW 6.9 mph - N/A   Clear
2:35 AM 44.6 °F 42.2 °F 37.4 °F 76% 29.51 in 10.0 mi NNW 4.6 mph - N/A   Clear
2:55 AM 42.8 °F - 37.4 °F 81% 29.49 in 10.0 mi Calm Calm - N/A   Clear
3:15 AM 41.0 °F 39.0 °F 35.6 °F 81% 29.48 in 5.0 mi WNW 3.5 mph - N/A   Clear
3:35 AM 39.2 °F 35.9 °F 35.6 °F 87% 29.49 in 5.0 mi WNW 4.6 mph - N/A   Clear
3:55 AM 39.2 °F 34.2 °F 35.6 °F 87% 29.50 in 6.0 mi WNW 6.9 mph - N/A   Clear
4:15 AM 39.2 °F 35.0 °F 35.6 °F 87% 29.50 in 7.0 mi West 5.8 mph - N/A   Clear
4:35 AM 41.0 °F 37.1 °F 37.4 °F 87% 29.51 in 7.0 mi West 5.8 mph - N/A   Clear
4:55 AM 42.8 °F 38.0 °F 37.4 °F 81% 29.51 in 10.0 mi West 8.1 mph - N/A   Clear
5:15 AM 44.6 °F 39.2 °F 39.2 °F 81% 29.52 in 10.0 mi West 10.4 mph - N/A   Clear
5:35 AM 46.4 °F 42.4 °F 39.2 °F 76% 29.53 in 10.0 mi West 8.1 mph - N/A   Clear
5:55 AM 46.4 °F 41.9 °F 39.2 °F 76% 29.55 in 10.0 mi West 9.2 mph - N/A   Clear
6:15 AM 50.0 °F - 41.0 °F 71% 29.56 in 10.0 mi WNW 9.2 mph - N/A   Clear
6:35 AM 51.8 °F - 41.0 °F 67% 29.58 in 10.0 mi WNW 9.2 mph - N/A   Clear
6:55 AM 51.8 °F - 42.8 °F 71% 29.59 in 10.0 mi WNW 9.2 mph - N/A   Clear
7:15 AM 53.6 °F - 42.8 °F 67% 29.61 in 10.0 mi West 8.1 mph - N/A   Clear
7:35 AM 55.4 °F - 42.8 °F 63% 29.63 in 10.0 mi WNW 9.2 mph - N/A   Clear
7:55 AM 57.2 °F - 44.6 °F 63% 29.63 in 10.0 mi WNW 9.2 mph 16.1 mph N/A   Clear
8:15 AM 59.0 °F - 44.6 °F 59% 29.65 in 10.0 mi NW 11.5 mph 20.7 mph N/A   Clear
8:35 AM 60.8 °F - 44.6 °F 55% 29.65 in 10.0 mi NW 13.8 mph 21.9 mph N/A   Clear
8:55 AM 60.8 °F - 44.6 °F 55% 29.66 in 10.0 mi NW 13.8 mph 19.6 mph N/A   Clear
9:15 AM 62.6 °F - 44.6 °F 52% 29.67 in 10.0 mi NNW 13.8 mph 20.7 mph N/A   Clear
9:35 AM 64.4 °F - 44.6 °F 49% 29.68 in 10.0 mi NW 11.5 mph 20.7 mph N/A   Clear
9:55 AM 64.4 °F - 44.6 °F 49% 29.68 in 10.0 mi NNW 15.0 mph 21.9 mph N/A   Clear
10:15 AM 66.2 °F - 42.8 °F 43% 29.69 in 10.0 mi NNW 10.4 mph 23.0 mph N/A   Clear
10:35 AM 68.0 °F - 44.6 °F 43% 29.69 in 10.0 mi WNW 16.1 mph 24.2 mph N/A   Clear
10:55 AM 68.0 °F - 42.8 °F 40% 29.70 in 10.0 mi NW 12.7 mph 23.0 mph N/A   Clear
11:15 AM 69.8 °F - 39.2 °F 33% 29.71 in 10.0 mi NNW 15.0 mph 23.0 mph N/A   Clear
11:35 AM 69.8 °F - 41.0 °F 35% 29.71 in 10.0 mi NW 11.5 mph 24.2 mph N/A   Clear
11:55 AM 69.8 °F - 41.0 °F 35% 29.72 in 10.0 mi WNW 11.5 mph 21.9 mph N/A   Clear
12:15 PM 71.6 °F - 39.2 °F 31% 29.72 in 10.0 mi West 16.1 mph 25.3 mph N/A   Clear
12:35 PM 71.6 °F - 37.4 °F 29% 29.72 in 10.0 mi NW 15.0 mph 31.1 mph N/A   Clear
12:55 PM 73.4 °F - 39.2 °F 29% 29.72 in 10.0 mi WNW 17.3 mph 24.2 mph N/A   Clear
1:15 PM 73.4 °F - 37.4 °F 27% 29.71 in 10.0 mi WNW 16.1 mph 24.2 mph N/A   Clear
1:35 PM 73.4 °F - 35.6 °F 25% 29.71 in 10.0 mi WNW 18.4 mph 27.6 mph N/A   Clear
1:55 PM 75.2 °F - 35.6 °F 24% 29.71 in 10.0 mi WNW 15.0 mph 31.1 mph N/A   Clear
2:15 PM 75.2 °F - 32.0 °F 21% 29.69 in 10.0 mi WNW 21.9 mph 32.2 mph N/A   Clear
2:35 PM 77.0 °F - 32.0 °F 19% 29.69 in 10.0 mi NW 19.6 mph 29.9 mph N/A   Clear
2:55 PM 77.0 °F - 30.2 °F 18% 29.69 in 10.0 mi WNW 18.4 mph 24.2 mph N/A   Clear
3:15 PM 77.0 °F - 28.4 °F 17% 29.69 in 10.0 mi WNW 16.1 mph 31.1 mph N/A   Clear
3:35 PM 77.0 °F - 26.6 °F 16% 29.69 in 10.0 mi NNW 15.0 mph 25.3 mph N/A   Clear
3:55 PM 77.0 °F - 26.6 °F 16% 29.69 in 10.0 mi WNW 18.4 mph 28.8 mph N/A   Clear
4:15 PM 77.0 °F - 26.6 °F 16% 29.70 in 10.0 mi NW 12.7 mph 25.3 mph N/A   Clear
4:35 PM 77.0 °F - 28.4 °F 17% 29.70 in 10.0 mi NW 12.7 mph 26.5 mph N/A   Clear
4:55 PM 78.8 °F - 30.2 °F 17% 29.69 in 10.0 mi West 19.6 mph 27.6 mph N/A   Clear
5:15 PM 77.0 °F - 30.2 °F 18% 29.69 in 10.0 mi WNW 19.6 mph 23.0 mph N/A   Clear
5:35 PM 77.0 °F - 30.2 °F 18% 29.68 in 10.0 mi West 21.9 mph 29.9 mph N/A   Clear
5:55 PM 77.0 °F - 30.2 °F 18% 29.70 in 10.0 mi WNW 11.5 mph 25.3 mph N/A   Clear
6:15 PM 77.0 °F - 30.2 °F 18% 29.71 in 10.0 mi NW 13.8 mph 24.2 mph N/A   Clear
6:35 PM 77.0 °F - 30.2 °F 18% 29.71 in 10.0 mi NNW 17.3 mph 23.0 mph N/A   Clear
6:55 PM 75.2 °F - 32.0 °F 21% 29.72 in 10.0 mi NW 15.0 mph 26.5 mph N/A   Clear
7:15 PM 75.2 °F - 32.0 °F 21% 29.72 in 10.0 mi NW 17.3 mph 21.9 mph N/A   Clear
7:35 PM 75.2 °F - 32.0 °F 21% 29.73 in 10.0 mi NW 12.7 mph 21.9 mph N/A   Clear
7:55 PM 75.2 °F - 32.0 °F 21% 29.73 in 10.0 mi NW 13.8 mph 19.6 mph N/A   Clear
8:15 PM 73.4 °F - 33.8 °F 23% 29.74 in 10.0 mi NW 10.4 mph - N/A   Clear
8:35 PM 73.4 °F - 33.8 °F 23% 29.74 in 10.0 mi WNW 8.1 mph - N/A   Clear
8:55 PM 71.6 °F - 33.8 °F 25% 29.74 in 10.0 mi WNW 5.8 mph - N/A   Clear
9:15 PM 69.8 °F - 33.8 °F 27% 29.75 in 10.0 mi WNW 5.8 mph - N/A   Clear
9:35 PM 66.2 °F - 33.8 °F 30% 29.75 in 10.0 mi WNW 3.5 mph - N/A   Clear
9:55 PM 60.8 °F - 33.8 °F 36% 29.76 in 10.0 mi West 3.5 mph - N/A   Clear
10:15 PM 60.8 °F - 35.6 °F 39% 29.76 in 10.0 mi Calm Calm - N/A   Clear
10:35 PM 59.0 °F - 35.6 °F 42% 29.76 in 10.0 mi West 4.6 mph - N/A   Clear
10:55 PM 57.2 °F - 35.6 °F 44% 29.76 in 10.0 mi Calm Calm - N/A   Clear
11:15 PM 55.4 °F - 37.4 °F 51% 29.76 in 10.0 mi Calm Calm - N/A   Clear
11:35 PM 53.6 °F - 39.2 °F 58% 29.76 in 10.0 mi West 5.8 mph - N/A   Clear
11:55 PM 55.4 °F - 37.4 °F 51% 29.76 in 10.0 mi WNW 3.5 mph - N/A   Clear